THOR ABLESTAR DEB, 406

Orbit data source: Space-Track

THOR ABLESTAR DEB, 406 is space debris in LEO originally from a launch on Thu, 29 Jun 1961 UTC launched from the Air Force Eastern Test Range (AFETR). Debris objects in space refer to the collection of defunct objects orbiting the Earth. Examples of debris include non-operational satellites, rocket bodies, and fragments generated from explosions, collisions, or faulty payload assembly.

Loading next visibility...
Identifier
406, 1961-015EF
Orbit
LEO
Country
Flag of USUS
Related business
Manufacturer
Unknown
Mission
Spacecraft
Bus & Motor
Unknown
Mass
Unknown
Launch date (UTC)
1961-06-29 (64 years ago)
Launch vehicle
Unknown
Launch site
Air Force Eastern Test Range (AFETR)
Object type
Payload
Rocket body
Debris
Shape & HBR
Unknown
Radar Cross Section
Small (<0.1 m²)

Expand to show TLE details & history
Last TLE update: 23 hours ago

TLE from 23 hours ago
0 THOR ABLESTAR DEB
1 00406U 61015EF  25258.31857567  .00000534  00000-0  66162-3 0  9993
2 00406  66.7764 281.3797 0125379 222.3976 151.4332 13.69272327183567
Epoch: 2025-09-15T07:38Z
TLE epoch observation values (Epoch: 2025-09-15T07:38:44.937Z)
Latitude
13.29035°
Longitude
177.95489°
Altitude
1,085.032 km
Speed
7.271 km/s
True Right ascension
19h 08m 40s
True Declination
13° 13' 01"
Sunlit
Object was in daylight at epoch
Visualization orbit readout
Latitude
Unknown
Longitude
Unknown
Altitude
Unknown
Speed
Unknown
Apparent Right ascension
Unknown
Apparent Declination
Unknown
Sunlit
N/A
Visualization observer readout
Local Sidereal Time
23:30:28
Azimuth
Unknown
Elevation
Unknown
Doppler factor
Unknown
Orbital elements
Apogee altitude
1,093.111 km
Perigee altitude
908.083 km
Semi-major axis
7,378.734 km
Eccentricity
0.01254
Inclination
66.7764°
RAAN
281.3797°
Arg. of periapsis
222.3976°
True anomaly
152.11087°
Mean anomaly
151.4332°
Eccentric anomaly
151.77296°
Mean motion
3.42429 °/min
Orbital period
105.13 mins
BSTAR
0.00066162
Loading maneuver chart data...
Computing Atmospheric mass density...

Documentation

Showing up to 5 results
|